Weather History for LEGR - February, 2013

Change the Weather History Date:

Friday, February 1, 2013

  Actual Average Record
Temperature  
Mean Temperature 48 °F -  
Max Temperature 66 °F 58 °F 68 °F (1997)
Min Temperature 31 °F 33 °F 19 °F (2005)
Degree Days  
Heating Degree Days 16    
Moisture  
Dew Point 39 °F    
Average Humidity 73    
Maximum Humidity 100    
Minimum Humidity 45    
Precipitation  
Precipitation 0.00 in - - ()
Sea Level Pressure  
Sea Level Pressure 30.30 in    
Wind  
Wind Speed 2 mph ()    
Max Wind Speed 12 mph    
Max Gust Speed -    
Visibility 7.8 miles    
Events      
Averages and records for this station are not official NWS values.
T = Trace of Precipitation, MM = Missing Value Source: Averaged Metar Reports

Daily Weather History Graph

Daily Weather History Graph

Search for Another Location

Airport or City:

Trip Planner

Search our weather history database for the weather conditions in past years. The results will help you decide how hot, cold, wet, or windy it might be!

Date:

Astronomy

Feb. 01, 2013 Rise Set
Actual Time 8:18 AM CET 6:39 PM CET
Civil Twilight 7:50 AM CET 7:07 PM CET
Nautical Twilight 7:19 AM CET 7:38 PM CET
Astronomical Twilight 6:48 AM CET 8:09 PM CET
Moon No Moon Rise 10:51 AM CET (2/1)
Length of Visible Light 11h 16m
Length of Day
10h 21m
Waning Gibbous, 73% of the Moon is Illuminated
Feb 1
Waning Gibbous
Feb 3
Last Quarter
Feb 10
New
Feb 17
First Quarter
Feb 25
Full

Hourly Weather History & Observations

Time (CET) Temp. Windchill Dew Point Humidity Pressure Visibility Wind Dir Wind Speed Gust Speed Precip Events Conditions
1:00 AM 38 °F - 36 °F 87% 30.52 in 7 mi SSW 2.3 mph - -  
6:00 AM 33.8 °F - 32.0 °F 93% 30.39 in - Variable 1.2 mph - N/A   Clear
6:30 AM 33.8 °F - 32.0 °F 93% 30.39 in - Calm Calm - N/A   Clear
7:00 AM 32 °F - 30 °F 87% 30.49 in 6 mi SE 1.2 mph - -  
7:00 AM 32.0 °F - 32.0 °F 100% 30.39 in - Calm Calm - N/A   Clear
7:30 AM 32.0 °F - 30.2 °F 93% 30.39 in - Variable 1.2 mph - N/A   Clear
8:00 AM 32.0 °F - 30.2 °F 93% 30.39 in - Calm Calm - N/A   Clear
8:30 AM 32.0 °F - 30.2 °F 93% 30.39 in - Variable 1.2 mph - N/A   Clear
9:00 AM 32.0 °F - 32.0 °F 100% 30.39 in 3.7 mi Variable 2.3 mph - N/A   Unknown
9:30 AM 35.6 °F - 35.6 °F 100% 30.39 in 5.0 mi Calm Calm - N/A   Unknown
10:00 AM 37.4 °F - 35.6 °F 93% 30.39 in 5.0 mi Calm Calm - N/A   Unknown
10:30 AM 42.8 °F - 37.4 °F 81% 30.39 in - Calm Calm - N/A   Clear
11:00 AM 44.6 °F - 39.2 °F 81% 30.36 in - Calm Calm - N/A   Clear
11:30 AM 46.4 °F - 39.2 °F 76% 30.36 in - Calm Calm - N/A   Clear
12:00 PM 51.8 °F - 41.0 °F 67% 30.36 in - Calm Calm - N/A   Clear
12:30 PM 51.8 °F - 41.0 °F 67% 30.36 in - Calm Calm - N/A   Clear
1:00 PM 54 °F - 39 °F 45% 30.33 in 9 mi NNW 1.2 mph - -  
1:00 PM 53.6 °F - 39.2 °F 58% 30.33 in - Calm Calm - N/A   Clear
1:30 PM 55.4 °F - 39.2 °F 54% 30.30 in - Variable 1.2 mph - N/A   Clear
2:00 PM 59.0 °F - 39.2 °F 48% 30.30 in - Calm Calm - N/A   Clear
2:30 PM 62.6 °F - 41.0 °F 45% 30.27 in - Calm Calm - N/A   Clear
3:00 PM 60.8 °F - 39.2 °F 45% 30.27 in - Variable 2.3 mph - N/A   Clear
3:30 PM 62.6 °F - 41.0 °F 45% 30.24 in - WNW 3.5 mph - N/A   Clear
4:00 PM 66.2 °F - 44.6 °F 46% 30.24 in - Calm Calm - N/A   Clear
5:00 PM 64.4 °F - 44.6 °F 49% 30.21 in - West 9.2 mph - N/A   Clear
5:30 PM 64.4 °F - 42.8 °F 45% 30.21 in - West 9.2 mph - N/A   Clear
6:00 PM 60.8 °F - 41.0 °F 48% 30.21 in - West 11.5 mph - N/A   Clear
6:30 PM 57.2 °F - 42.8 °F 59% 30.21 in - West 8.1 mph - N/A   Clear
7:00 PM 56 °F - 42 °F 49% 30.21 in 19 mi WNW 8.1 mph - -  
7:00 PM 57.2 °F - 44.6 °F 63% 30.21 in - West 9.2 mph - N/A   Clear
7:30 PM 53.6 °F - 44.6 °F 72% 30.21 in - West 5.8 mph - N/A   Clear
8:00 PM 53.6 °F - 44.6 °F 72% 30.21 in - West 3.5 mph - N/A   Clear
8:30 PM 51.8 °F - 44.6 °F 76% 30.21 in - WNW 5.8 mph - N/A   Clear
9:00 PM 51.8 °F - 44.6 °F 76% 30.21 in - West 4.6 mph - N/A   Clear
9:30 PM 48.2 °F - 44.6 °F 87% 30.21 in - WSW 6.9 mph - N/A   Clear
10:00 PM 46.4 °F 45.2 °F 44.6 °F 93% 30.21 in - WSW 3.5 mph - N/A   Clear
10:30 PM 44.6 °F - 42.8 °F 93% 30.21 in - Variable 1.2 mph - N/A   Clear
11:00 PM 42.8 °F - 41.0 °F 93% 30.21 in - Variable 1.2 mph - N/A   Clear